KO4LFZ Weather Reports


time (UTC)temp
C
wind
direction
speed
KPH
gust
KPH
rain 1hr
cm
rain 24hr
cm
rain mn
cm
humidity
%
barometer
mb
20260906022251 27 219 0.0 0.0 0.00 0.00 0.00 86 1011.6
20260906021747 27 221 0.0 0.0 0.00 0.00 0.00 87 1011.4
20260906021246 27 228 0.0 0.0 0.00 0.00 0.00 87 1011.5
20260906020740 27 225 0.0 0.0 0.00 0.00 0.00 87 1011.4
20260906020235 27 226 0.0 0.0 0.00 0.00 0.00 87 1011.3
20260906015730 27 224 0.0 0.0 0.00 0.00 0.00 86 1011.1
20260906015228 28 227 0.0 0.0 0.00 0.00 0.00 84 1011.2
20260906014723 28 209 0.0 0.0 0.00 0.00 0.00 84 1011.2
20260906014219 28 217 0.0 0.0 0.00 0.00 0.00 85 1011.1
20260906013715 28 213 0.0 0.0 0.00 0.00 0.00 85 1010.9
20260906013214 28 210 0.0 0.0 0.00 0.00 0.00 86 1011.1
20260906012709 28 236 0.0 0.0 0.00 0.00 0.00 84 1011.2
20260906012204 28 207 0.0 0.0 0.00 0.00 0.00 78 1011.0
20260906011700 28 220 0.0 0.0 0.00 0.00 0.00 77 1011.2
20260906011154 29 225 0.0 0.0 0.00 0.00 0.00 78 1010.7
20260906010649 29 222 0.0 0.0 0.00 0.00 0.00 78 1010.8
20260906010146 29 201 0.0 0.0 0.00 0.00 0.00 81 1010.7
20260906005645 30 226 0.0 0.0 0.00 0.00 0.00 80 1010.9
20260906005144 30 231 0.0 0.0 0.00 0.00 0.00 76 1010.8
20260906004643 30 215 0.0 0.0 0.00 0.00 0.00 74 1010.7
20260906004139 30 213 0.0 0.0 0.00 0.00 0.00 74 1010.7
20260906003634 30 219 0.0 0.0 0.00 0.00 0.00 76 1010.5
20260906003130 31 227 0.0 0.0 0.00 0.00 0.00 76 1010.6
20260906002625 31 215 0.0 0.0 0.00 0.00 0.00 73 1010.9
20260906002119 32 231 0.0 0.0 0.00 0.00 0.00 73 1010.8
20260906001614 33 225 0.0 0.0 0.00 0.00 0.00 69 1010.6
20260906001109 33 213 0.0 0.0 0.00 0.00 0.00 64 1010.7
20260906000605 33 206 0.0 0.0 0.00 0.00 0.00 64 1011.0
20260906000100 33 212 0.0 0.0 0.00 0.00 0.00 61 1010.9
20260905235559 33 230 0.0 0.0 0.00 0.00 0.00 62 1011.0
20260905235054 33 193 0.0 0.0 0.00 0.00 0.00 63 1011.1
20260905234550 34 238 0.0 0.0 0.00 0.00 0.00 64 1011.2
20260905234044 35 241 0.0 0.0 0.00 0.00 0.00 63 1011.1
20260905233539 35 234 0.0 0.0 0.00 0.00 0.00 60 1011.2
20260905233039 35 242 0.0 0.0 0.00 0.00 0.00 61 1011.1
20260905232534 35 239 0.0 0.0 0.00 0.00 0.00 63 1011.2
20260905232030 35 248 0.0 0.0 0.00 0.00 0.00 62 1011.1
20260905231525 33 235 0.0 0.0 0.00 0.00 0.00 64 1011.0
20260905231021 33 241 0.0 0.0 0.00 0.00 0.00 63 1010.9
20260905230520 33 239 0.0 0.0 0.00 0.00 0.00 63 1010.8
20260905230019 33 247 0.0 0.0 0.00 0.00 0.00 62 1011.0
20260905225514 33 258 0.0 0.0 0.00 0.00 0.00 61 1011.1
20260905225009 33 278 0.0 0.0 0.00 0.00 0.00 61 1011.0
20260905224504 34 262 0.0 0.0 0.00 0.00 0.00 60 1011.0
20260905224003 35 274 0.0 0.0 0.00 0.00 0.00 59 1010.9
20260905223501 36 334 0.0 0.0 0.00 0.00 0.00 55 1010.8
20260905222956 36 294 0.0 0.0 0.00 0.00 0.00 52 1010.8
20260905222456 36 278 0.0 0.0 0.00 0.00 0.00 51 1010.9
20260905221951 37 293 0.0 0.0 0.00 0.00 0.00 54 1011.0
20260905221448 37 322 0.0 0.0 0.00 0.00 0.00 53 1010.8
20260905220944 37 329 0.0 0.0 0.00 0.00 0.00 51 1011.0
20260905220439 37 265 0.0 0.0 0.00 0.00 0.00 49 1011.1
20260905215938 38 241 0.0 0.0 0.00 0.00 0.00 50 1010.9
20260905215434 39 262 0.0 0.0 0.00 0.00 0.00 47 1011.2
20260905214930 39 232 0.0 0.0 0.00 0.00 0.00 42 1011.0
20260905214426 38 231 0.0 0.0 0.00 0.00 0.00 46 1011.0
20260905213920 37 170 0.0 0.0 0.00 0.00 0.00 49 1011.0
20260905213416 37 316 0.0 0.0 0.00 0.00 0.00 47 1011.0
20260905212911 37 123 0.0 0.0 0.00 0.00 0.00 46 1011.1
20260905212406 38 12 0.0 0.0 0.00 0.00 0.00 47 1011.2
20260905211900 39 250 0.0 0.0 0.00 0.00 0.00 42 1011.2
20260905211355 38 221 0.0 0.0 0.00 0.00 0.00 45 1011.2
20260905210852 37 17 0.0 0.0 0.00 0.00 0.00 47 1011.3
20260905210351 37 13 0.0 0.0 0.00 0.00 0.00 47 1011.3
20260905205850 38 336 0.0 0.0 0.00 0.00 0.00 48 1011.4
20260905205345 37 246 0.0 0.0 0.00 0.00 0.00 47 1011.4
20260905204844 37 70 0.0 0.0 0.00 0.00 0.00 46 1011.4
20260905204341 37 275 0.0 0.0 0.00 0.00 0.00 48 1011.5
20260905203839 36 67 0.0 0.0 0.00 0.00 0.00 48 1011.5
20260905203335 36 79 0.0 0.0 0.00 0.00 0.00 51 1011.6
20260905202831 38 351 0.0 0.0 0.00 0.00 0.00 48 1011.5
20260905202326 40 202 0.0 0.0 0.00 0.00 0.00 45 1011.5
20260905201822 39 231 0.0 0.0 0.00 0.00 0.00 46 1011.8
20260905201317 38 260 0.0 0.0 0.00 0.00 0.00 47 1012.0
20260905200816 38 232 0.0 0.0 0.00 0.00 0.00 47 1012.0
20260905200313 38 262 0.0 0.0 0.00 0.00 0.00 47 1011.9
20260905195810 37 225 0.0 0.0 0.00 0.00 0.00 48 1012.2
20260905195307 37 259 0.0 0.0 0.00 0.00 0.00 48 1012.2
20260905194802 37 44 0.0 0.0 0.00 0.00 0.00 51 1012.1
20260905194300 37 349 0.0 0.0 0.00 0.00 0.00 51 1012.6
20260905193754 37 230 0.0 0.0 0.00 0.00 0.00 48 1012.4
20260905193249 37 30 0.0 0.0 0.00 0.00 0.00 49 1012.5
20260905192739 37 95 0.0 0.0 0.00 0.00 0.00 48 1012.6
20260905192236 38 248 0.0 0.0 0.00 0.00 0.00 46 1012.7
20260905191735 37 224 0.0 0.0 0.00 0.00 0.00 49 1012.8
20260905191233 37 261 0.0 0.0 0.00 0.00 0.00 49 1012.8
20260905190732 36 236 0.0 0.0 0.00 0.00 0.00 52 1012.8
20260905190231 37 237 0.0 0.0 0.00 0.00 0.00 51 1012.8
20260905185730 37 239 0.0 0.0 0.00 0.00 0.00 49 1013.1
20260905185225 36 331 0.0 0.0 0.00 0.00 0.00 52 1013.1
20260905184719 37 10 0.0 0.0 0.00 0.00 0.00 51 1013.2
20260905184218 37 1 0.0 0.0 0.00 0.00 0.00 50 1013.2
20260905183718 36 234 0.0 0.0 0.00 0.00 0.00 51 1013.1
20260905183214 36 27 0.0 0.0 0.00 0.00 0.00 56 1013.2
20260905182712 36 267 0.0 0.0 0.00 0.00 0.00 54 1013.2
20260905182207 36 343 0.0 0.0 0.00 0.00 0.00 54 1013.5
20260905181703 36 294 0.0 0.0 0.00 0.00 0.00 56 1013.3
20260905181201 35 257 0.0 0.0 0.00 0.00 0.00 62 1013.5
20260905180656 35 238 0.0 0.0 0.00 0.00 0.00 57 1013.4
20260905180151 36 338 0.0 0.0 0.00 0.00 0.00 57 1013.5
20260905175650 36 284 0.0 0.0 0.00 0.00 0.00 54 1013.5
20260905175146 37 242 0.0 0.0 0.00 0.00 0.00 54 1013.5
20260905174642 37 287 0.0 0.0 0.00 0.00 0.00 51 1013.4
20260905174137 36 279 0.0 0.0 0.00 0.00 0.00 53 1013.5
20260905173633 36 231 0.0 0.0 0.00 0.00 0.00 55 1013.6
20260905173128 36 282 0.0 0.0 0.00 0.00 0.00 55 1013.6
20260905172627 35 354 0.0 0.0 0.00 0.00 0.00 54 1013.9
20260905172122 35 348 0.0 0.0 0.00 0.00 0.00 56 1013.9
20260905171618 35 238 0.0 0.0 0.00 0.00 0.00 56 1013.9
20260905171114 36 7 0.0 0.0 0.00 0.00 0.00 54 1013.9
20260905170611 36 281 0.0 0.0 0.00 0.00 0.00 57 1013.8
20260905170105 36 6 0.0 0.0 0.00 0.00 0.00 54 1014.0
20260905165559 36 252 0.0 0.0 0.00 0.00 0.00 57 1014.0
20260905165054 36 296 0.0 0.0 0.00 0.00 0.00 55 1014.1
20260905164549 36 339 0.0 0.0 0.00 0.00 0.00 57 1014.2
20260905164044 36 341 8.0 20.9 0.00 0.00 0.00 59 1014.2
20260905163540 35 251 0.0 0.0 0.00 0.00 0.00 61 1014.4
20260905163036 36 289 0.0 0.0 0.00 0.00 0.00 64 1014.2
20260905162532 35 232 0.0 0.0 0.00 0.00 0.00 58 1014.6
20260905162026 35 245 0.0 0.0 0.00 0.00 0.00 60 1014.3
20260905161521 36 352 0.0 0.0 0.00 0.00 0.00 59 1014.5
20260905161018 35 249 0.0 0.0 0.00 0.00 0.00 62 1014.6
20260905160512 36 270 0.0 0.0 0.00 0.00 0.00 61 1014.6
20260905160011 36 223 0.0 0.0 0.00 0.00 0.00 59 1014.5
20260905155506 36 235 0.0 0.0 0.00 0.00 0.00 57 1014.7
20260905155004 35 231 0.0 0.0 0.00 0.00 0.00 60 1014.6
20260905154500 36 227 0.0 0.0 0.00 0.00 0.00 58 1014.7
20260905153955 35 230 0.0 0.0 0.00 0.00 0.00 59 1014.6
20260905153451 35 224 0.0 0.0 0.00 0.00 0.00 63 1014.5
20260905152950 35 225 0.0 0.0 0.00 0.00 0.00 61 1014.6
20260905152445 35 243 0.0 0.0 0.00 0.00 0.00 62 1014.5
20260905151939 35 242 0.0 0.0 0.00 0.00 0.00 65 1014.5
20260905151435 35 226 0.0 0.0 0.00 0.00 0.00 62 1014.9
20260905150930 35 232 0.0 0.0 0.00 0.00 0.00 62 1014.7
20260905150430 35 229 0.0 0.0 0.00 0.00 0.00 62 1014.8
20260905145926 34 228 0.0 0.0 0.00 0.00 0.00 64 1014.6
20260905145421 34 229 0.0 0.0 0.00 0.00 0.00 64 1014.6
20260905144915 33 230 0.0 0.0 0.00 0.00 0.00 65 1014.6
20260905144411 33 275 0.0 0.0 0.00 0.00 0.00 66 1014.8
20260905143909 33 217 0.0 0.0 0.00 0.00 0.00 67 1014.6
20260905143403 32 230 0.0 0.0 0.00 0.00 0.00 72 1014.5
20260905142857 32 228 0.0 0.0 0.00 0.00 0.00 73 1014.6
20260905142355 31 234 0.0 0.0 0.00 0.00 0.00 72 1014.6
20260905141852 31 246 0.0 0.0 0.00 0.00 0.00 73 1014.6
20260905141347 31 264 0.0 0.0 0.00 0.00 0.00 75 1014.7
20260905140843 31 228 0.0 0.0 0.00 0.00 0.00 79 1014.8
20260905140343 31 224 0.0 0.0 0.00 0.00 0.00 77 1014.5
20260905135842 31 227 0.0 0.0 0.00 0.00 0.00 80 1014.5
20260905135338 30 226 0.0 0.0 0.00 0.00 0.00 83 1014.5
20260905134834 30 234 0.0 0.0 0.00 0.00 0.00 83 1014.5
20260905134332 30 233 0.0 0.0 0.00 0.00 0.00 86 1014.5
20260905133827 30 233 0.0 0.0 0.00 0.00 0.00 86 1014.4
20260905133323 29 226 0.0 0.0 0.00 0.00 0.00 87 1014.3
20260905132821 29 226 0.0 0.0 0.00 0.00 0.00 89 1014.4
20260905132317 28 226 0.0 0.0 0.00 0.00 0.00 91 1014.3
20260905131811 27 225 0.0 0.0 0.00 0.00 0.00 93 1014.5
20260905131307 27 228 0.0 0.0 0.00 0.00 0.00 95 1014.3
20260905130802 27 228 0.0 0.0 0.00 0.00 0.00 97 1014.4
20260905130300 26 228 0.0 0.0 0.00 0.00 0.00 99 1014.5
20260905125756 26 228 0.0 0.0 0.00 0.00 0.00 99 1014.5
20260905125251 26 227 0.0 0.0 0.00 0.00 0.00 99 1014.2
20260905124747 26 227 0.0 0.0 0.00 0.00 0.00 99 1014.2
20260905124243 25 227 0.0 0.0 0.00 0.00 0.00 99 1014.0
20260905123738 25 226 0.0 0.0 0.00 0.00 0.00 99 1014.3
20260905123235 25 224 0.0 0.0 0.00 0.00 0.00 99 1014.3
20260905122734 24 225 0.0 0.0 0.00 0.00 0.00 99 1014.2
20260905122228 23 225 0.0 0.0 0.00 0.00 0.00 99 1014.2
20260905121723 23 227 0.0 0.0 0.00 0.00 0.00 99 1014.1
20260905121220 23 229 0.0 0.0 0.00 0.00 0.00 99 1014.1
20260905120718 23 228 0.0 0.0 0.00 0.00 0.00 99 1013.9
20260905120213 22 229 0.0 0.0 0.00 0.00 0.00 99 1014.0
20260905115708 22 230 0.0 0.0 0.00 0.00 0.00 99 1013.9
20260905115202 22 227 0.0 0.0 0.00 0.00 0.00 99 1013.8
20260905114702 23 226 0.0 0.0 0.00 0.00 0.00 99 1014.0
20260905114200 23 224 0.0 0.0 0.00 0.00 0.00 99 1014.0
20260905113655 22 225 0.0 0.0 0.00 0.00 0.00 99 1013.6
20260905113151 22 227 0.0 0.0 0.00 0.00 0.00 99 1013.8
20260905112651 22 227 0.0 0.0 0.00 0.00 0.00 99 1014.0
20260905112147 22 227 0.0 0.0 0.00 0.00 0.00 99 1013.7
20260905111646 22 227 0.0 0.0 0.00 0.00 0.00 99 1013.7
20260905111146 22 225 0.0 0.0 0.00 0.00 0.00 99 1013.7
20260905110645 23 223 0.0 0.0 0.00 0.00 0.00 99 1013.7
20260905110140 23 222 0.0 0.0 0.00 0.00 0.00 99 1013.5
20260905105635 23 197 0.0 0.0 0.00 0.00 0.00 99 1013.7
20260905105134 23 198 0.0 0.0 0.00 0.00 0.00 99 1013.6
20260905104629 23 227 0.0 0.0 0.00 0.00 0.00 99 1013.3
20260905104125 23 223 0.0 0.0 0.00 0.00 0.00 99 1013.3
20260905103620 23 227 0.0 0.0 0.00 0.00 0.00 99 1013.4
20260905103116 23 229 0.0 0.0 0.00 0.00 0.00 99 1013.6
20260905102611 23 226 0.0 0.0 0.00 0.00 0.00 99 1013.3
20260905102108 23 143 0.0 0.0 0.00 0.00 0.00 99 1013.5
20260905101606 23 202 0.0 0.0 0.00 0.00 0.00 99 1013.3
20260905101104 23 218 0.0 0.0 0.00 0.00 0.00 99 1013.4
20260905100601 23 205 0.0 0.0 0.00 0.00 0.00 99 1013.5
20260905100101 22 222 0.0 0.0 0.00 0.00 0.00 99 1013.5
20260905095555 22 242 0.0 0.0 0.00 0.00 0.00 99 1013.3
20260905095050 22 236 0.0 0.0 0.00 0.00 0.00 99 1013.5
20260905094546 22 229 0.0 0.0 0.00 0.00 0.00 99 1013.4
20260905094045 23 229 0.0 0.0 0.00 0.00 0.00 99 1013.3
20260905093544 23 225 0.0 0.0 0.00 0.00 0.00 99 1013.3
20260905093042 23 225 0.0 0.0 0.00 0.00 0.00 99 1013.3
20260905092541 23 224 0.0 0.0 0.00 0.00 0.00 99 1013.5
20260905092037 22 225 0.0 0.0 0.00 0.00 0.00 99 1013.4
20260905091531 23 232 0.0 0.0 0.00 0.00 0.00 99 1013.2
20260905091031 23 222 0.0 0.0 0.00 0.00 0.00 99 1013.3
20260905090525 23 216 0.0 0.0 0.00 0.00 0.00 99 1013.4
20260905090021 23 227 0.0 0.0 0.00 0.00 0.00 99 1013.6
20260905085519 23 221 0.0 0.0 0.00 0.00 0.00 99 1013.4
20260905085015 23 231 0.0 0.0 0.00 0.00 0.00 99 1013.6
20260905084515 23 234 0.0 0.0 0.00 0.00 0.00 99 1013.6
20260905084009 23 225 0.0 0.0 0.00 0.00 0.00 99 1013.1
20260905083504 23 229 0.0 0.0 0.00 0.00 0.00 99 1013.2
20260905083001 23 228 0.0 0.0 0.00 0.00 0.00 99 1013.3
20260905082456 23 235 0.0 0.0 0.00 0.00 0.00 99 1013.2
20260905081951 23 197 0.0 0.0 0.00 0.00 0.00 99 1013.4
20260905081446 23 218 0.0 0.0 0.00 0.00 0.00 99 1013.4
20260905080944 23 219 0.0 0.0 0.00 0.00 0.00 99 1013.2
20260905080434 23 226 0.0 0.0 0.00 0.00 0.00 99 1013.4
20260905075932 23 226 0.0 0.0 0.00 0.00 0.00 99 1013.3
20260905075428 23 228 0.0 0.0 0.00 0.00 0.00 99 1013.4
20260905074926 23 226 0.0 0.0 0.00 0.00 0.00 99 1013.5
20260905074422 23 226 0.0 0.0 0.00 0.00 0.00 99 1013.3
20260905073918 23 228 0.0 0.0 0.00 0.00 0.00 99 1013.4
20260905073413 23 228 0.0 0.0 0.00 0.00 0.00 99 1013.4
20260905072909 23 222 0.0 0.0 0.00 0.00 0.00 99 1013.4
20260905072403 23 210 0.0 0.0 0.00 0.00 0.00 99 1013.4
20260905071858 23 235 0.0 0.0 0.00 0.00 0.00 99 1013.4
20260905071349 23 223 0.0 0.0 0.00 0.00 0.00 99 1013.7
20260905070843 23 224 0.0 0.0 0.00 0.00 0.00 99 1013.5
20260905070340 23 229 0.0 0.0 0.00 0.00 0.00 99 1013.6
20260905065839 23 229 0.0 0.0 0.00 0.00 0.00 99 1013.5
20260905065337 23 226 0.0 0.0 0.00 0.00 0.00 99 1013.6
20260905064833 23 227 0.0 0.0 0.00 0.00 0.00 99 1013.6
20260905064329 23 226 0.0 0.0 0.00 0.00 0.00 99 1013.8
20260905063827 23 225 0.0 0.0 0.00 0.00 0.00 99 1013.7
20260905063323 23 226 0.0 0.0 0.00 0.00 0.00 99 1013.5
20260905062819 24 227 0.0 0.0 0.00 0.00 0.00 98 1013.8
20260905062313 24 233 0.0 0.0 0.00 0.00 0.00 98 1013.7
20260905061808 24 219 0.0 0.0 0.00 0.00 0.00 98 1013.6
20260905061308 24 232 0.0 0.0 0.00 0.00 0.00 98 1013.7
20260905060802 24 234 0.0 0.0 0.00 0.00 0.00 97 1013.6
20260905060259 24 227 0.0 0.0 0.00 0.00 0.00 97 1013.6
20260905055752 25 223 0.0 0.0 0.00 0.00 0.00 97 1013.7
20260905055247 24 220 0.0 0.0 0.00 0.00 0.00 98 1013.7
20260905054742 25 224 0.0 0.0 0.00 0.00 0.00 97 1013.8
20260905054239 25 219 0.0 0.0 0.00 0.00 0.00 97 1013.8
20260905053737 25 227 0.0 0.0 0.00 0.00 0.00 97 1013.8
20260905053233 25 217 0.0 0.0 0.00 0.00 0.00 97 1013.6
20260905052727 25 209 0.0 0.0 0.00 0.00 0.00 98 1013.8
20260905052222 25 228 0.0 0.0 0.00 0.00 0.00 97 1013.7
20260905051721 25 225 0.0 0.0 0.00 0.00 0.00 98 1014.0
20260905051218 25 225 0.0 0.0 0.00 0.00 0.00 97 1013.9
20260905050714 25 233 0.0 0.0 0.00 0.00 0.00 97 1013.8
20260905050211 25 231 0.0 0.0 0.00 0.00 0.00 97 1013.7
20260905045710 25 231 0.0 0.0 0.00 0.00 0.00 97 1013.8
20260905045206 25 232 0.0 0.0 0.00 0.00 0.00 96 1013.7
20260905044701 25 232 0.0 0.0 0.00 0.00 0.00 96 1013.7
20260905044155 25 228 0.0 0.0 0.00 0.00 0.00 96 1013.9
20260905043654 25 228 0.0 0.0 0.00 0.00 0.00 95 1013.8
20260905043149 25 225 0.0 0.0 0.00 0.00 0.00 95 1013.8
20260905042649 25 228 0.0 0.0 0.00 0.00 0.00 94 1013.8
20260905042143 25 220 0.0 0.0 0.00 0.00 0.00 95 1014.0
20260905041639 25 220 0.0 0.0 0.00 0.00 0.00 95 1014.0
20260905041134 25 222 0.0 0.0 0.00 0.00 0.00 95 1014.2
20260905040629 25 228 0.0 0.0 0.00 0.00 0.00 95 1014.1
20260905040127 25 229 0.0 0.0 0.00 0.00 0.00 94 1014.3
20260905035623 25 229 0.0 0.0 0.00 0.00 0.00 94 1014.0
20260905035120 25 228 0.0 0.0 0.00 0.00 0.00 94 1014.0
20260905034615 25 230 0.0 0.0 0.00 0.00 0.00 94 1014.1
20260905034114 25 227 0.0 0.0 0.00 0.00 0.00 93 1013.9
20260905033614 25 226 0.0 0.0 0.00 0.00 0.00 93 1014.0
20260905033109 25 227 0.0 0.0 0.00 0.00 0.00 93 1013.9
20260905032604 26 226 0.0 0.0 0.00 0.00 0.00 93 1013.9
20260905032104 26 227 0.0 0.0 0.00 0.00 0.00 91 1013.9
20260905031600 26 234 0.0 0.0 0.00 0.00 0.00 90 1014.1
20260905031100 26 231 0.0 0.0 0.00 0.00 0.00 89 1014.1
20260905030555 26 228 0.0 0.0 0.00 0.00 0.00 88 1014.0
20260905030050 26 226 0.0 0.0 0.00 0.00 0.00 88 1013.8
20260905025041 26 225 0.0 0.0 0.00 0.00 0.00 89 1014.0
20260905024536 26 223 0.0 0.0 0.00 0.00 0.00 89 1014.0
20260905024032 26 229 0.0 0.0 0.00 0.00 0.00 89 1013.8
20260905023527 26 230 0.0 0.0 0.00 0.00 0.00 89 1013.9
20260905023021 26 226 0.0 0.0 0.00 0.00 0.00 88 1014.0